sat.trackr.live / text

‹ back to catalog

SKYCRAFT-4B

NORAD 64872 · 2025-154D

PAYLOAD ACTIVE UNKNOWN

§ Identity

Operator
Country
AUS
Launch date
2025-07-23
Launch site
AFWTR
Launch vehicle
Mass (kg)
RCS (m²)

External: N2YO · Heavens-Above · Gunter

§ Orbital elements

Epoch: 2026-05-25T04:28:43.275072Z

Period
96.17 min
Inclination
97.6667°
Eccentricity
0.0003869
Mean motion
14.97305079 rev/d
Perigee alt
572.5 km
Apogee alt
577.9 km
Semi-major
6,953.4 km
B*
5.5966e-4
RAAN
210.2340°
Arg perigee
354.2551°
Mean anomaly
5.8626°
Rev number
4,560

§ Raw data

SKYCRAFT-4B1 64872U 25154D   26145.18661198  .00006437  00000+0  55966-3 0  99952 64872  97.6667 210.2340 0003869 354.2551   5.8626 14.97305079 45600

JSON: /api/v1/satellites/64872 · /tle

For live sub-satellite position, see the globe view (requires WebGL).

§ Visibility from observer

Set your observer location to see the next 7 days of passes ≥ 10°. The values pass through the URL so the page stays shareable.

No JS? Fill the form by hand. The geolocation button needs JavaScript.